Weather Roundup
Issued by NWS

Home | Current Version | Previous Version | Graphics & Text | Print | Product List | Glossary Off
Versions: 1 2 3 4 5 6 7 8 9 10 11 12 13 14 15 16 17 18 19 20 21 22 23 24 25 26 27 28 29 30 31 32 33 34 35 36 37 38 39 40 41 42 43 44 45 46 47 48 49 50

000
NZUS93 KARX 240659
HRRWXR

CURRENT HOURLY OBSERVATIONS ACROSS
MUCH OF THE UPPER MISSISSIPPI VALLEY
NATIONAL WEATHER SERVICE LA CROSSE WI
200 AM CDT SUN MAY 24 2015


...SOUTHEAST MINNESOTA...


CITY           SKY/WX    TMP DP  RH WIND       PRES   REMARKS
ROCHESTER      CLOUDY    62  49  62 SE8       30.13S
ROCHESTER/MAYO CLOUDY    64  49  56 E8        30.12F
WINONA         CLOUDY    59  54  82 CALM      30.14R
AUSTIN         CLOUDY    63  50  63 SE3       30.11S
ALBERT LEA     CLOUDY    63  52  67 SE3       30.10F
DODGE CENTER   CLOUDY    64  48  55 SE9       30.12S
PRESTON        CLOUDY    63  48  58 CALM      30.14S
OWATONNA       CLOUDY    63  52  67 SE7       30.10F
FARIBAULT      CLOUDY    61  52  72 NE5       30.10F
$$

...ELSEWHERE IN MINNESOTA...


CITY           SKY/WX    TMP DP  RH WIND       PRES   REMARKS
MINNEAPOLIS    MOCLDY    62  48  60 E6        30.11S
INTNL FALLS    CLEAR     51  42  71 SW6       30.10F
DULUTH         PTCLDY    52  42  69 CALM      30.15R
RED WING       CLOUDY    63  46  55 CALM      30.11S
REDWOOD FALLS  CLOUDY    62  50  64 E7        30.08S
MANKATO        CLOUDY    61  52  72 E7        30.09F
WORTHINGTON    CLOUDY    59  54  82 SE13      30.09R
FAIRMONT       CLOUDY    63  48  59 E6        30.09S
$$

...SOUTHWEST WISCONSIN...


CITY           SKY/WX    TMP DP  RH WIND       PRES   REMARKS
LA CROSSE      FAIR      60  49  66 SE7       30.13R
PRAIRIE DU CHI PTCLDY    57  49  73 E3        30.14R
BOSCOBEL       PTCLDY    53  49  86 CALM      30.15S
LONE ROCK      NOT AVBL
PLATTEVILLE    PTCLDY    61  49  62 E7        30.15S
FORT MC COY    PTCLDY    50  47  92 CALM      30.15S
VIROQUA        FAIR      60  45  57 SE7       30.15S
WIS DELLS      CLEAR     55  44  67 S3        30.15F
$$

...ELSEWHERE IN WISCONSIN...


CITY           SKY/WX    TMP DP  RH WIND       PRES   REMARKS
MILWAUKEE      PTCLDY    56  39  53 S3        30.17F
MADISON        PTCLDY    53  47  79 CALM      30.16S
GREEN BAY      PTCLDY    60  43  53 S8        30.16F
EAU CLAIRE     NOT AVBL
BLACK RVR FLS  FAIR      49  48  97 CALM      30.14S
MEDFORD        CLOUDY    55  51  87 NE3       30.17S
WAUSAU         CLOUDY    57  51  80 CALM      30.15F
WIS RAPIDS     MOCLDY    57  45  64 CALM      30.17S
MARSHFIELD     MOCLDY    59  46  62 NE3       30.16F
RICE LAKE      CLOUDY    58  53  84 CALM      30.17F
$$

...NORTHEAST IOWA...


CITY           SKY/WX    TMP DP  RH WIND       PRES   REMARKS
DECORAH        CLOUDY    63  48  59 SE5       30.12F
MASON CITY     CLOUDY    63  53  70 NE5       30.11S
CHARLES CITY   CLOUDY    63  50  63 SE6       30.12R
OELWEIN        CLOUDY    63  50  63 E6        30.13R
$$

...ELSEWHERE IN IOWA...


CITY           SKY/WX    TMP DP  RH WIND       PRES   REMARKS
DES MOINES     LGT RAIN  67  53  61 SE10      30.06F
IOWA CITY      CLOUDY    65  51  60 SE6       30.13S
FORT DODGE     CLOUDY    63  54  72 SE6       30.07F
$$

...NORTHERN ILLINOIS...


CITY           SKY/WX    TMP DP  RH WIND       PRES   REMARKS
CHICAGO-OHARE  PTCLDY    61  46  57 S6        30.18F
CHICAGO-MIDWAY PTCLDY    67  46  47 S3        30.19S
MOLINE         CLOUDY    66  50  56 SE5       30.14S
ROCKFORD       CLOUDY    60  50  69 SE6       30.18F
PEORIA         CLOUDY    70  50  49 SE6       30.16S
$$

NOTE: "FAIR" INDICATES FEW OR NO CLOUDS BELOW 12,000 FEET WITH NO
SIGNIFICANT WEATHER AND/OR OBSTRUCTIONS TO VISIBILITY. WIND
SPEEDS ARE IN MILES-PER-HOUR.



USA.gov is the U.S. government's official web portal to all federal, state and local government web resources and services.